Location: Jaite
(41.2884°N, 81.5737°W)
Time: 11:15:59
(UTC+00:00)

BlueWalker 3 - Pass Details

Date: 20 October 2024
Orbit: 470 x 482 km, 53.2° (Epoch: 05 November)

Event Time Altitude Azimuth Distance (km) Brightness Sun altitude
Exits shadow 09:13:24 16° 35° (NE) 1,284 4.5 -28.9°
Drops below altitude 10° 09:15:07 10° 62° (ENE) 1,632 5.4 -28.6°
Sets 09:17:48 0° 82° (E) 2,508 6.8 -28.1°
